RH
6 6 6 6 6 6 6 7 7 7 7 7 7 7 7 7 7 7 7 7 7 8 8 8 8 8 9 9 9 10 11 11 12 12 13 15 15 16 16 16 16 15 15 15 14 11 9 8 9 9 9 8 6 6 6 7 9 11 15 19 22 24 24 25 28 37 43 45 44 42 40 40 38 39 39 41 47 52 57 61 65 69 72 73 71 68 66 67 69 69 69 70 70 70 68 67 66
6 6 6 6 6 7 7 7 7 7 7 7 7 7 7 7 7 7 7 8 8 8 8 8 8 8 8 9 9 9 10 10 11 11 12 13 13 14 15 16 17 16 16 15 15 14 12 10 9 8 9 10 9 7 6 6 7 7 9 13 17 21 24 25 26 27 32 37 40 39 41 42 40 39 39 40 43 46 51 55 58 60 62 65 67 66 64 65 66 63 61 61 61 61 60 58 57
6 6 6 7 7 7 7 7 7 7 7 7 7 7 7 7 8 8 8 8 8 8 9 9 9 9 9 9 9 9 9 10 10 10 11 11 11 11 12 13 15 16 16 17 17 16 15 14 11 10 8 9 9 9 9 7 6 6 7 8 10 14 18 22 25 26 27 30 33 34 37 38 38 37 38 39 40 41 45 49 52 52 51 52 55 58 60 62 64 60 54 52 51 50 49 48 47
6 6 7 7 7 7 7 7 7 7 7 7 7 8 8 8 9 9 9 9 9 10 10 10 10 10 10 10 10 9 10 10 10 10 11 11 12 12 11 11 12 13 14 16 17 17 17 16 15 13 11 9 9 9 9 10 8 6 6 6 7 8 11 14 18 21 24 26 27 29 29 30 31 32 33 35 36 37 40 43 45 44 43 41 41 46 51 55 58 56 51 47 44 41 39 38 37
7 7 7 7 7 7 7 7 7 7 7 7 8 9 9 10 10 10 11 11 11 11 11 11 10 11 11 11 11 10 10 10 10 10 11 12 12 13 13 12 11 12 12 13 14 16 17 17 17 16 15 13 11 9 9 10 10 9 7 6 6 6 7 8 10 12 16 19 21 23 24 26 26 26 27 28 30 32 34 36 36 36 35 33 33 35 39 43 46 49 48 46 42 37 34 33 31
7 7 7 7 7 7 7 7 7 7 7 8 9 10 11 12 13 13 14 14 14 15 14 13 12 11 12 12 12 11 11 11 10 10 11 11 12 13 13 12 12 11 11 12 12 13 14 15 16 17 17 16 15 12 10 9 9 10 10 9 7 6 6 6 6 7 9 10 12 14 17 19 20 20 20 21 22 24 25 27 28 29 28 27 26 27 28 29 31 34 37 38 37 35 33 31 29
7 7 7 7 7 7 7 7 8 8 8 9 10 12 13 14 16 17 18 19 19 19 18 17 16 14 14 13 12 12 12 11 11 11 11 11 11 12 12 12 12 11 11 11 11 11 12 12 13 15 16 17 17 16 14 11 9 9 9 10 10 9 8 6 6 6 6 6 7 8 9 11 12 13 13 14 15 15 16 17 18 20 21 20 20 20 19 19 19 19 21 23 24 25 25 24 23
7 7 7 7 7 7 7 8 8 8 9 10 12 14 15 16 19 21 23 24 23 23 23 22 20 19 17 16 14 13 12 12 12 11 11 11 12 12 12 12 12 12 11 11 11 11 11 11 11 12 13 14 15 17 17 15 13 11 9 9 9 10 9 9 8 7 6 6 6 6 7 7 7 8 8 9 10 10 10 10 11 12 13 14 14 15 14 14 13 13 12 12 13 14 15 15 16
7 6 7 7 7 7 8 8 8 9 10 13 15 16 17 19 21 24 26 27 27 26 26 25 25 24 23 22 20 16 14 13 12 12 11 12 12 12 12 12 12 12 12 11 11 11 11 10 11 11 11 12 13 14 15 17 17 15 13 11 9 9 9 10 10 9 8 7 6 6 6 6 6 6 6 7 7 8 8 8 8 9 9 9 10 10 11 11 10 10 10 10 10 10 11 11 11
6 7 7 7 7 7 8 8 8 9 11 15 17 19 20 21 23 25 27 28 29 29 28 28 28 28 29 30 27 23 20 17 14 13 12 12 12 12 12 12 13 13 12 12 11 11 11 11 11 11 11 11 11 12 12 13 15 16 17 15 13 11 9 9 9 10 10 9 9 7 7 6 6 6 6 6 6 7 7 7 7 7 8 8 8 8 8 9 9 9 9 9 9 9 10 9 9
6 6 7 7 7 8 8 9 9 10 12 15 18 20 22 24 25 26 27 28 29 30 30 30 30 30 32 32 31 30 28 24 19 16 14 13 12 11 11 12 12 13 12 12 12 12 12 11 11 11 11 11 11 11 11 12 12 13 15 16 17 15 13 11 9 9 9 10 10 10 9 8 7 6 6 6 6 6 6 6 6 7 7 7 7 7 8 7 8 8 8 8 8 9 9 9 9
6 6 7 7 8 8 9 10 10 12 14 16 18 20 24 25 26 26 27 28 29 29 29 30 31 31 32 32 31 32 33 30 25 21 18 16 14 12 11 11 11 12 12 12 12 12 12 12 12 11 11 11 11 11 11 11 11 12 12 13 15 16 17 15 13 11 9 9 9 10 10 10 10 9 8 7 7 6 6 6 6 6 6 6 7 7 7 7 7 7 7 7 7 8 8 8 8
6 7 7 8 9 9 10 11 12 14 16 17 18 20 24 25 27 28 29 28 28 28 28 29 30 30 30 31 31 31 34 35 31 25 21 19 17 15 13 12 11 11 11 11 11 11 12 12 11 11 11 11 10 10 10 11 11 11 11 12 12 13 15 16 17 16 14 11 10 9 9 10 10 10 10 10 10 9 8 7 7 7 6 6 6 6 6 6 7 7 7 7 7 7 7 7 7
7 7 8 9 10 11 11 12 14 16 18 19 19 20 21 23 27 30 31 29 29 29 30 30 29 29 28 29 29 29 32 34 34 30 24 21 19 17 15 13 12 11 10 10 10 10 10 11 11 11 11 11 10 10 10 10 10 10 11 11 11 12 12 13 14 16 16 16 15 13 10 9 9 9 10 10 11 10 10 9 9 8 8 8 7 7 7 7 7 7 7 7 7 6 7 7 7
7 8 9 10 10 12 13 14 16 18 19 20 20 18 18 21 27 32 33 33 33 32 32 31 29 28 28 29 29 28 29 31 34 34 31 26 21 18 16 15 13 12 11 10 10 10 10 10 10 10 10 10 10 10 10 10 10 10 10 10 11 12 12 12 12 13 14 15 17 17 16 13 11 9 9 9 9 10 10 10 10 10 10 9 9 9 9 9 9 9 9 8 8 8 8 8 8
8 9 10 11 12 13 14 15 17 19 20 20 19 16 16 21 28 33 35 35 35 34 32 31 29 28 27 28 29 29 28 29 30 32 34 32 26 20 16 15 15 13 12 11 11 10 10 10 10 10 10 10 10 10 10 10 10 10 10 10 10 10 11 12 12 13 13 13 14 15 17 17 16 14 12 10 9 9 9 9 10 10 10 10 10 10 10 10 10 10 10 9 9 9 9 9 9
8 9 10 12 13 14 15 17 18 19 19 19 18 16 17 22 29 32 33 34 34 34 33 31 30 28 24 24 26 28 29 29 28 29 32 34 31 25 19 15 14 13 13 12 12 12 11 11 10 10 9 10 10 10 10 10 10 10 10 10 10 10 10 11 11 12 13 13 13 13 14 15 16 16 16 16 14 12 11 10 9 9 9 9 10 10 10 10 10 10 10 9 9 9 9 9 9
8 10 12 13 14 15 16 17 18 17 17 17 17 17 20 26 31 32 31 31 33 35 35 35 34 32 27 22 20 23 26 28 29 28 29 32 33 32 27 22 18 16 15 14 14 14 14 13 12 11 10 10 10 10 10 9 10 10 10 10 9 9 9 10 10 11 11 12 13 13 13 13 13 14 15 16 16 16 16 15 13 12 11 10 9 9 9 9 9 9 9 9 9 9 9 9 9
9 11 12 14 15 15 16 17 17 17 17 17 18 22 27 30 33 32 31 32 34 35 36 38 37 35 32 26 20 19 20 24 27 28 28 29 31 33 33 30 28 28 28 27 25 23 20 19 18 16 13 11 10 10 9 10 9 9 9 10 10 9 9 9 9 10 10 11 11 12 12 13 13 13 13 13 14 15 15 16 16 16 16 14 13 12 12 11 11 10 10 10 9 9 9 8 8
10 12 13 14 15 16 17 17 17 18 19 20 24 28 31 33 34 33 32 33 33 33 35 38 38 36 35 31 24 19 17 18 21 25 27 28 28 29 31 32 33 34 34 35 35 34 32 29 27 25 21 18 16 12 10 10 9 9 10 9 9 9 9 9 9 9 9 9 10 11 11 11 12 13 13 13 13 13 13 14 14 15 16 16 16 16 15 15 15 14 14 13 13 13 12 12 11
11 13 14 16 17 18 18 19 20 21 22 24 27 30 33 33 33 33 33 32 32 32 34 37 38 36 34 32 28 23 19 17 17 19 22 26 27 28 28 29 29 30 32 34 35 36 38 37 36 35 33 31 28 24 19 15 12 11 10 10 10 9 9 9 9 9 9 9 9 9 9 10 11 11 12 12 13 13 13 13 14 14 14 14 14 15 15 15 15 15 15 15 15 15 15 15 14
12 14 16 17 19 19 20 21 22 24 26 27 29 32 34 33 33 35 34 32 31 31 33 36 39 37 33 31 29 26 23 20 18 17 18 21 24 27 28 28 28 28 30 32 33 35 37 39 39 40 40 40 39 37 34 30 26 20 14 11 10 9 10 10 10 9 9 9 9 9 9 9 10 10 11 11 12 12 12 12 13 13 13 14 13 13 14 14 14 14 14 14 14 14 14 14 15
13 16 18 19 20 21 23 24 26 28 30 31 32 34 35 32 33 36 34 32 29 29 31 33 37 38 35 31 28 27 26 24 22 20 19 19 21 24 27 28 29 29 30 32 33 34 36 38 40 40 41 42 41 42 42 42 40 35 29 22 16 12 10 9 10 11 11 10 10 9 9 9 9 10 10 11 11 11 11 11 12 12 13 13 13 13 13 13 13 13 13 13 13 13 13 13 14
14 16 18 19 20 22 24 27 28 29 31 33 33 35 36 33 34 36 36 33 31 30 30 31 33 35 35 32 28 25 25 25 25 25 24 22 22 22 24 26 27 28 29 32 33 34 35 37 39 40 41 42 41 41 42 44 45 45 43 38 33 26 17 12 10 10 11 11 11 11 10 10 10 10 11 11 11 11 11 11 11 11 12 12 13 12 12 12 12 12 12 12 12 12 13 12 13
14 16 17 18 20 22 24 26 28 29 31 33 33 36 38 37 37 39 39 38 35 34 32 30 31 32 32 30 28 26 25 24 25 26 28 29 27 26 25 25 26 27 28 30 32 34 34 35 36 38 39 40 41 41 40 41 42 45 47 47 45 40 33 25 17 12 11 12 12 12 12 11 11 12 12 12 12 12 12 11 11 11 12 12 12 12 12 12 11 12 12 12 12 12 12 12 12
15 16 17 19 20 23 24 25 26 28 31 32 33 37 39 39 40 41 42 41 39 38 35 31 30 30 28 27 28 28 28 26 25 25 28 32 34 33 32 31 30 29 30 30 31 32 33 34 35 35 36 37 38 39 39 39 39 40 44 47 48 47 44 38 29 21 16 13 13 13 13 13 13 13 13 13 13 13 12 11 11 11 11 12 12 11 11 11 11 11 11 10 11 11 11 11 11
17 18 20 22 23 25 24 25 26 28 31 31 32 35 36 37 38 40 42 41 41 42 38 33 30 28 25 24 27 29 31 31 30 28 28 31 35 38 38 37 35 33 32 32 33 32 31 31 33 34 35 35 36 36 37 37 37 38 40 44 47 48 47 44 40 34 27 21 17 14 14 14 14 14 14 14 14 14 13 12 11 11 12 12 11 11 11 10 10 10 10 10 9 9 9 9 9
22 23 24 25 24 25 25 25 27 29 31 29 28 31 33 34 34 38 40 40 42 43 41 35 30 27 24 25 28 30 34 36 37 36 33 33 36 40 40 38 36 34 33 33 34 35 33 31 29 31 32 34 35 35 35 35 36 36 38 41 43 46 47 47 45 42 39 33 26 21 17 15 15 15 15 15 15 15 15 14 13 11 12 12 12 11 11 11 10 9 9 9 9 9 9 9 8
25 24 24 26 26 27 28 29 29 30 30 27 26 29 34 36 37 40 41 42 43 43 42 37 33 31 30 31 33 36 38 40 42 43 41 38 37 39 40 38 35 34 33 32 33 34 36 34 30 28 28 30 31 32 33 34 35 35 37 39 41 43 45 48 48 46 44 42 39 34 28 22 19 17 15 15 16 17 17 17 16 14 13 13 13 13 12 12 11 10 10 9 9 9 9 9 9
25 25 26 28 28 29 30 30 30 29 28 27 28 30 36 41 43 44 44 44 45 45 44 41 39 39 40 40 39 40 41 40 40 41 41 38 35 35 37 38 37 36 34 33 32 31 33 34 33 31 29 29 29 29 29 29 30 31 32 34 37 39 41 43 46 48 47 46 46 46 43 37 31 26 21 17 16 16 18 19 18 17 16 15 15 15 14 14 13 12 11 10 10 10 10 10 9
28 27 27 26 26 28 30 29 30 30 31 33 34 36 41 47 50 49 48 47 48 49 49 46 47 49 48 45 42 41 41 39 39 37 37 37 36 36 36 37 38 37 36 35 34 32 31 32 34 34 33 32 31 30 29 28 27 27 27 29 31 34 35 37 40 44 47 48 48 49 50 49 45 40 35 29 23 19 17 19 20 20 19 18 18 17 16 16 16 14 12 11 11 10 10 10 10
28 27 29 31 32 35 37 39 39 38 39 41 42 43 45 51 56 57 55 52 50 50 49 49 53 54 50 46 43 41 39 38 39 39 37 37 37 38 38 38 38 38 37 37 37 35 33 31 32 34 35 34 33 33 32 30 28 28 27 27 28 30 31 33 35 38 42 46 48 49 51 52 53 52 50 46 41 33 24 19 19 21 21 21 20 20 19 18 18 17 15 14 13 12 11 12 12
33 35 38 41 41 42 45 50 49 46 44 43 43 44 46 50 54 60 59 52 47 45 46 50 53 52 49 46 43 41 40 39 38 38 38 37 36 37 37 37 36 36 36 36 36 36 36 33 31 32 34 36 35 35 34 33 31 30 30 30 30 30 30 31 32 34 37 42 46 48 49 49 51 53 54 54 54 51 43 32 23 20 21 22 22 21 21 21 20 20 19 17 17 16 16 15 15
42 44 44 44 43 41 45 51 50 47 44 40 40 39 39 42 46 56 56 48 47 46 45 49 51 49 46 43 41 39 38 37 36 35 35 34 34 34 34 34 34 34 35 35 35 36 36 36 34 32 33 35 36 37 37 36 34 33 33 34 33 33 32 32 32 33 35 39 44 46 47 47 47 47 49 52 54 54 53 49 39 28 21 20 21 22 22 22 22 22 21 21 20 19 19 18 18
46 46 43 40 40 38 41 46 44 40 38 36 36 33 33 37 43 50 47 43 48 50 48 49 48 46 43 40 38 37 35 34 33 32 32 31 31 30 30 30 30 31 31 32 33 34 35 36 37 36 34 34 36 38 39 39 38 37 37 37 37 36 36 35 35 35 36 38 41 44 45 45 45 46 46 49 51 52 52 52 50 43 33 24 20 19 21 22 22 22 22 22 21 21 21 20 19
46 45 41 38 37 37 41 42 39 36 33 34 36 34 35 42 48 50 43 41 46 46 46 48 46 43 41 39 37 35 34 33 31 31 31 31 30 30 29 29 28 27 27 28 28 29 29 30 34 36 36 36 36 38 39 40 39 39 39 40 40 40 39 39 38 38 38 38 40 42 44 45 48 50 51 51 51 52 52 51 50 49 46 38 30 23 19 19 20 20 21 21 21 21 21 20 20
45 43 41 40 39 40 44 42 40 37 33 35 38 35 36 43 50 48 43 43 44 41 42 45 44 43 40 39 38 37 36 35 34 33 32 31 30 29 29 28 27 26 25 24 24 24 25 26 29 32 35 37 38 39 40 40 40 39 39 41 43 44 44 44 44 43 42 41 41 42 45 47 50 52 54 54 54 53 52 52 52 51 51 49 44 37 29 24 20 18 18 18 19 20 20 20 19
44 44 43 42 41 42 44 42 41 38 33 34 36 32 34 42 47 45 43 46 45 42 43 44 44 43 42 41 41 42 41 40 38 36 35 33 31 30 29 27 26 25 24 22 21 21 22 24 25 26 28 32 36 39 41 41 40 40 39 40 43 45 47 47 48 48 48 48 47 46 46 48 50 52 53 54 54 53 52 52 53 53 53 53 52 49 45 39 33 28 24 21 19 19 19 19 19
45 46 44 42 43 42 41 42 41 38 35 33 32 28 30 43 49 45 47 50 48 45 46 47 47 46 46 46 46 45 44 42 41 39 37 35 33 32 30 28 27 25 24 22 20 20 20 20 20 21 23 25 29 35 41 44 43 42 41 40 41 44 47 49 50 51 52 53 53 53 51 50 49 50 52 53 54 54 54 54 54 54 54 54 54 54 52 49 46 42 37 33 29 26 24 23 21
49 47 43 42 44 40 37 40 39 36 34 31 29 23 25 45 53 48 51 54 50 49 50 50 50 50 49 48 47 45 43 40 38 36 33 32 30 29 27 26 24 23 22 21 21 21 21 20 19 19 21 23 25 28 34 42 45 45 44 43 43 43 44 48 52 54 55 55 55 56 56 56 55 54 53 54 55 56 56 56 56 56 56 55 54 54 54 53 51 49 46 42 39 35 32 29 26
48 45 42 41 42 38 36 39 37 34 32 28 26 19 20 40 50 50 53 53 51 52 52 52 51 50 48 45 42 38 36 34 32 30 28 27 26 25 24 23 22 22 21 20 21 23 21 20 20 20 23 25 25 25 27 33 39 43 46 46 45 46 46 48 50 53 54 54 54 54 55 55 56 56 56 56 57 58 60 60 61 61 60 59 57 56 55 55 53 52 51 49 46 43 39 35 32
47 45 43 41 40 39 38 38 35 32 31 29 27 21 19 28 40 51 52 46 50 53 50 50 47 43 40 37 35 33 32 31 29 28 27 26 26 25 25 25 25 27 28 26 27 32 31 24 20 20 24 27 27 28 30 33 36 41 45 46 46 49 50 51 50 49 50 50 50 51 53 54 54 54 55 55 56 56 57 59 60 61 61 61 61 61 60 60 58 56 54 52 51 49 46 43 40
48 49 47 44 45 45 43 41 37 31 30 28 29 31 26 19 30 49 49 40 45 48 43 42 39 36 35 33 33 32 31 30 29 28 27 26 25 24 24 25 27 30 35 36 35 39 43 38 32 25 21 22 25 31 36 40 42 45 49 49 49 50 51 52 51 49 49 49 49 50 51 53 55 55 55 55 55 55 55 55 55 56 57 57 58 59 59 61 61 60 59 57 55 54 51 48 47
52 55 52 49 50 49 47 47 43 35 30 26 30 41 32 18 26 42 44 40 42 41 38 38 36 35 34 33 31 29 28 27 26 25 24 24 23 22 23 24 27 28 32 39 42 45 46 44 42 39 32 26 28 34 40 46 48 50 54 55 55 55 55 55 53 52 54 55 56 56 57 56 57 57 58 59 59 58 58 57 57 57 56 55 55 55 55 55 55 56 57 58 58 58 57 54 51
55 58 57 56 56 55 54 53 47 41 34 27 37 50 36 18 24 37 40 41 41 39 39 38 38 37 34 31 29 28 27 25 23 22 20 20 20 20 20 22 26 27 28 35 42 48 52 50 47 47 44 37 39 45 49 54 57 54 56 59 60 61 61 61 61 62 63 66 67 68 68 67 65 63 62 62 63 64 64 63 62 61 60 59 57 55 54 53 52 52 52 52 54 56 58 58 56
59 62 63 64 64 62 61 55 51 48 35 29 45 58 45 25 25 35 41 42 41 40 41 41 39 37 34 33 29 27 26 24 21 18 17 17 16 16 17 19 22 23 25 31 37 45 53 56 55 54 52 45 44 50 53 57 60 60 62 64 63 63 64 66 67 68 68 69 72 75 77 78 77 76 74 71 69 68 67 65 64 62 61 59 58 56 55 54 53 52 51 50 50 50 52 55 56
64 66 67 71 69 65 64 57 58 56 38 35 52 59 52 37 28 36 42 41 41 41 42 42 40 38 38 36 30 25 23 21 19 16 14 14 13 13 14 17 21 22 23 27 33 42 50 57 58 56 58 56 50 51 56 60 63 64 67 68 69 69 67 65 66 69 70 66 64 65 67 70 73 77 79 80 77 71 66 62 61 59 58 56 55 54 54 53 53 52 51 51 50 49 49 50 51
68 68 70 74 70 66 66 62 64 60 42 43 57 57 52 42 35 39 41 39 40 43 45 45 43 43 42 36 28 21 20 18 16 13 12 11 12 12 12 14 20 26 30 31 30 34 42 54 60 58 58 59 58 56 56 58 63 68 71 69 69 69 66 65 64 64 61 60 61 62 60 60 62 64 67 71 73 70 64 58 55 54 52 51 51 50 50 51 51 51 50 50 49 49 49 49 49
69 70 72 76 74 73 69 62 63 57 45 50 58 53 47 40 38 41 40 40 44 47 48 48 46 46 42 33 22 17 17 16 14 12 12 10 10 10 12 18 25 32 40 46 44 39 37 41 51 60 63 62 66 67 63 58 56 60 65 68 70 69 68 71 73 70 64 61 62 64 64 63 63 64 62 62 63 63 60 57 54 52 51 50 48 48 48 49 51 52 51 51 49 48 47 48 49
71 72 75 79 80 78 66 57 62 57 49 55 56 50 45 39 39 41 40 42 46 49 51 50 49 47 38 25 17 15 16 15 14 13 11 10 9 9 11 20 32 39 44 53 60 60 54 46 45 53 62 68 72 76 75 69 59 55 56 60 69 78 82 86 89 92 92 87 81 74 69 65 67 73 76 73 67 63 60 56 52 50 49 51 53 53 53 52 54 56 56 55 53 52 50 49 49
74 72 74 73 71 76 71 64 67 63 55 53 52 51 46 40 40 40 40 43 47 52 54 52 49 41 29 17 13 14 14 14 14 12 11 10 8 9 10 15 28 38 42 49 63 74 74 63 51 48 56 70 81 87 88 84 83 81 65 47 49 61 68 73 75 76 78 78 76 72 65 60 60 68 77 77 71 68 68 66 63 59 53 51 53 56 58 59 61 63 65 65 62 58 56 55 55
72 69 68 64 65 80 87 79 73 71 65 54 48 50 47 42 42 42 45 48 52 56 56 52 45 30 18 11 10 12 12 12 12 10 10 9 8 8 9 11 18 26 32 37 48 62 69 60 44 38 42 50 63 78 89 94 95 86 61 41 38 41 42 45 46 46 47 50 53 56 56 55 55 58 61 62 60 62 68 73 79 81 79 74 70 66 64 64 65 68 71 73 73 68 65 65 65
71 67 65 70 78 89 96 92 82 80 76 58 47 50 51 50 47 45 52 57 58 59 54 43 29 15 10 9 8 10 10 11 11 10 9 8 8 8 7 9 12 17 24 27 29 33 40 40 33 32 36 37 40 47 56 61 58 46 35 32 33 32 30 30 31 34 38 42 46 48 48 48 47 48 49 48 47 48 52 57 64 70 76 83 88 89 87 83 79 77 77 78 79 77 75 75 76
69 66 67 81 93 95 99 100 90 84 82 67 54 53 54 57 54 52 60 64 60 54 41 25 15 9 8 8 9 10 10 11 11 9 9 9 10 12 13 16 19 21 24 28 30 31 33 35 33 32 32 31 29 28 28 28 27 26 27 29 29 28 28 28 28 30 33 36 40 42 42 41 39 39 39 38 37 36 36 37 40 43 46 52 61 74 86 94 96 94 92 89 86 84 82 83 85
68 73 81 90 96 97 98 99 90 86 88 81 70 63 58 60 62 62 63 59 48 36 22 12 9 7 7 9 12 11 11 12 12 12 13 14 15 18 24 31 35 39 45 50 56 64 69 71 70 67 62 51 39 31 27 25 23 24 24 23 24 26 27 27 24 20 18 21 27 33 37 38 37 36 33 31 30 29 29 30 33 39 42 42 41 45 55 69 83 93 98 99 97 94 92 90 89
78 87 93 94 94 96 97 97 94 95 98 93 84 76 65 59 59 58 51 38 26 18 11 9 9 10 12 14 15 15 16 17 16 17 20 20 22 30 41 52 58 64 73 81 86 91 95 97 96 95 92 83 71 60 52 45 39 36 33 33 35 39 43 45 40 32 24 20 21 26 29 28 27 27 25 23 22 21 21 22 25 31 38 44 47 46 45 46 53 64 77 86 91 95 97 98 97
92 94 96 95 95 97 98 98 96 91 84 75 69 63 51 41 37 34 26 17 11 9 8 9 12 14 17 18 20 23 25 24 25 28 31 30 32 40 49 57 60 59 61 69 78 85 90 93 93 93 92 92 90 88 84 78 73 71 70 70 69 68 67 66 65 62 56 47 40 38 37 34 31 26 22 18 15 14 14 14 13 15 19 25 31 38 42 43 42 44 50 58 63 69 77 87 94
100 98 97 96 98 100 99 93 83 68 51 44 49 47 31 19 16 14 11 9 8 9 10 12 16 21 26 31 34 32 29 28 30 33 33 32 33 36 40 46 49 51 54 60 70 79 84 86 87 86 87 89 93 97 100 99 95 91 88 85 78 68 55 47 46 48 48 44 36 29 26 25 24 21 16 12 11 10 11 10 10 9 10 10 12 17 23 29 32 32 32 35 36 38 43 51 62
Wind_Speed
5 5 5 5 6 7 8 9 9 10 11 11 11 11 13 13 12 12 12 12 11 10 11 11 11 12 12 12 13 12 12 12 11 11 11 10 10 10 10 10 9 8 7 6 5 4 4 4 4 4 4 3 2 1 1 1 1 1 2 3 6 8 9 11 14 17 17 17 16 15 13 12 11 11 11 9 8 8 9 9 9 8 9 9 10 10 10 10 10 10 10 11 11 11 11 11 11
4 4 4 4 5 5 6 7 7 9 10 10 10 12 13 13 13 13 12 12 11 10 10 11 11 11 11 11 11 11 10 11 11 11 11 10 10 10 10 10 9 9 8 7 6 5 4 4 4 5 4 4 3 3 2 1 1 1 2 2 3 5 7 9 11 14 16 17 17 16 14 13 12 12 12 11 10 10 10 10 10 9 10 10 11 11 11 12 12 11 11 11 12 12 12 12 11
3 2 2 3 3 4 5 6 7 8 9 10 10 11 12 12 14 14 13 12 12 11 11 11 11 11 11 11 11 11 10 10 10 10 9 9 9 9 9 9 9 9 9 8 7 6 5 5 5 5 5 5 5 5 4 3 3 2 2 2 3 4 6 7 9 11 13 15 16 15 15 14 13 12 12 12 11 11 11 11 11 10 11 11 11 11 12 12 13 12 12 12 12 12 12 13 12
3 2 1 2 3 4 6 7 7 8 9 10 11 12 12 12 13 14 13 13 13 12 12 12 11 12 12 12 11 11 10 9 9 8 8 8 9 9 9 9 9 9 9 8 8 7 6 6 5 5 6 6 7 7 6 5 5 4 4 3 4 4 5 6 8 9 11 12 14 15 15 14 13 13 12 12 12 12 11 11 11 11 11 11 11 11 11 12 13 13 13 13 13 13 13 13 13
2 1 2 3 4 5 6 7 8 9 9 10 10 11 12 11 12 14 14 13 14 14 14 14 13 12 13 12 12 11 9 9 9 8 8 8 8 8 9 9 9 8 8 8 8 7 7 7 6 6 5 6 7 7 7 7 7 6 6 5 5 5 5 6 7 8 9 10 11 13 14 14 14 13 12 11 11 11 11 11 11 11 11 11 11 11 11 11 12 12 13 13 13 13 13 13 13
2 2 3 5 6 7 7 8 9 11 11 11 10 11 12 11 11 12 14 14 14 15 15 15 14 13 13 12 12 12 11 11 11 10 10 9 8 8 8 8 8 8 8 8 8 8 7 7 7 6 6 6 6 7 8 9 9 8 8 7 7 7 7 7 7 7 8 9 10 11 12 13 13 13 12 11 11 11 11 11 11 11 12 11 11 11 11 12 12 12 13 13 14 14 14 13 14
4 4 5 7 7 7 8 8 10 12 12 12 12 13 14 12 11 12 13 14 15 15 15 15 15 14 14 13 12 12 12 12 12 12 12 11 10 9 9 8 8 8 8 8 8 8 8 8 7 7 6 6 6 6 6 8 10 10 10 10 9 9 8 8 8 8 8 8 9 9 10 11 12 12 12 12 11 11 11 11 11 11 12 12 12 12 12 13 13 13 13 13 14 14 14 14 14
6 7 7 8 9 9 9 9 11 12 12 13 14 14 14 13 13 12 13 14 15 15 16 16 15 15 14 14 14 13 12 12 12 13 13 13 12 11 11 10 9 9 9 8 8 8 8 8 8 8 7 7 6 6 6 6 8 10 11 12 11 11 10 10 10 9 9 10 10 10 10 11 11 11 11 12 12 11 11 12 12 12 12 12 13 13 14 14 14 14 14 14 14 14 14 14 14
8 9 10 11 12 11 11 11 13 13 12 13 15 14 14 14 13 13 12 13 14 14 15 16 15 15 14 14 14 14 13 12 13 13 13 13 13 13 13 12 12 11 11 10 9 9 9 8 8 8 8 8 7 7 6 6 6 7 9 11 12 13 12 12 11 11 11 11 11 11 11 11 11 11 12 12 12 12 12 13 13 13 13 13 13 14 15 15 15 15 15 15 15 15 15 15 15
11 11 12 13 14 15 14 14 15 13 11 12 13 13 14 14 13 13 13 13 13 13 15 16 15 15 15 14 14 14 14 13 13 13 13 13 13 14 14 14 14 13 13 12 11 10 10 9 9 9 8 8 8 8 7 7 7 7 7 9 10 12 14 14 14 13 12 12 12 12 12 13 13 13 13 13 13 13 13 14 13 13 14 14 14 15 15 16 16 16 16 16 16 16 16 16 16
12 13 13 14 16 17 17 17 16 13 12 12 12 12 15 15 14 14 14 14 13 13 14 15 15 15 15 15 15 15 15 14 14 13 13 13 14 14 14 15 15 15 14 14 13 12 12 11 11 10 10 9 9 9 8 8 8 7 7 8 8 10 11 13 15 15 15 14 14 14 14 14 14 14 14 14 15 14 15 15 15 14 14 15 15 15 15 16 16 17 17 17 17 17 17 17 17
13 14 14 16 17 18 18 18 17 15 14 15 14 13 14 16 16 16 16 16 15 15 16 16 15 15 15 16 16 15 15 15 15 14 13 13 14 14 14 15 15 16 15 15 14 14 13 13 13 12 12 11 10 10 10 9 9 8 8 8 8 9 10 11 13 14 15 16 16 16 16 15 15 15 15 15 16 16 16 16 16 16 16 16 16 16 16 16 17 17 17 17 18 17 17 17 17
14 15 16 17 18 18 18 17 17 16 16 16 15 14 14 16 17 17 17 18 17 17 17 18 18 17 16 17 17 15 14 14 14 14 14 14 14 14 15 14 15 15 16 16 15 15 15 15 14 14 14 13 12 12 11 11 11 10 10 9 9 9 10 10 11 12 14 15 16 17 18 18 18 17 17 17 17 17 17 17 17 18 18 18 18 18 18 18 18 18 18 18 18 18 18 18 18
15 16 16 17 18 18 18 17 16 15 16 16 16 16 16 17 18 18 18 19 19 18 18 19 19 19 18 19 18 15 13 13 14 14 14 14 14 15 15 15 15 15 16 16 17 17 17 16 16 16 15 15 15 14 13 13 12 12 12 11 11 10 10 10 11 11 12 13 14 16 17 19 19 19 19 19 19 19 19 19 19 19 19 19 19 19 19 19 19 19 19 19 19 19 19 19 19
16 17 17 18 19 18 17 16 16 16 16 17 17 18 19 19 19 18 18 20 21 20 19 20 19 19 20 20 20 16 14 14 14 15 15 14 14 15 16 15 15 16 16 17 17 18 18 18 18 17 17 16 16 16 15 15 15 14 14 13 13 13 12 12 12 12 12 12 13 14 15 17 18 20 21 21 21 21 21 21 21 21 21 21 21 21 20 20 20 20 20 20 20 20 19 19 20
17 18 19 19 19 18 18 17 16 17 17 18 19 20 21 21 20 19 18 19 20 21 21 21 19 20 21 21 21 19 17 15 15 16 16 15 14 14 15 15 15 16 16 17 18 18 19 19 19 18 18 17 17 17 17 17 17 16 16 16 15 15 15 14 14 13 13 13 13 13 14 15 16 17 19 20 21 22 23 23 23 23 24 24 24 23 23 23 23 23 23 22 22 22 21 21 21
19 19 20 20 19 18 18 18 17 18 19 20 21 22 22 22 21 18 17 17 17 20 21 21 21 21 21 22 22 21 20 18 17 16 16 15 13 13 13 13 14 14 16 16 17 17 19 19 19 19 19 18 18 18 18 18 18 18 18 18 18 17 17 17 16 16 15 15 14 14 14 15 15 16 16 18 19 20 21 23 24 25 25 26 26 26 26 25 26 26 26 25 25 25 24 24 24
20 19 20 20 20 19 19 20 19 20 21 22 23 22 22 22 20 18 17 17 17 19 20 21 22 23 23 22 22 22 22 21 19 17 15 14 13 12 12 13 13 14 14 15 16 17 18 19 19 19 19 19 19 19 19 20 20 20 20 20 20 20 19 19 19 19 18 18 17 16 15 15 16 16 16 17 18 18 19 21 22 23 25 26 26 27 27 27 27 28 28 28 27 27 27 27 26
20 20 20 20 20 20 21 21 21 22 23 24 24 24 23 23 21 19 17 18 21 21 19 19 21 24 25 23 22 22 22 22 21 20 18 16 15 14 13 13 14 15 15 16 16 18 19 20 20 20 19 19 19 19 20 20 21 21 21 21 21 21 21 21 21 21 21 21 20 19 18 18 18 18 18 18 18 19 19 20 21 21 23 24 25 25 26 26 27 28 28 28 28 28 28 28 28
21 20 20 20 20 21 22 23 23 24 24 25 25 24 24 24 22 20 18 19 23 24 20 19 19 22 25 25 24 22 22 22 22 21 21 20 19 18 16 15 15 16 16 17 17 17 18 19 20 20 20 19 19 20 20 21 21 21 22 22 22 22 22 22 23 23 23 23 23 23 22 21 21 20 20 20 20 21 21 21 21 22 22 23 24 25 25 25 26 27 27 27 27 28 28 28 28
21 20 20 20 20 22 23 24 25 25 25 25 25 23 23 24 23 22 21 20 23 24 23 21 19 20 23 26 26 25 23 23 22 22 21 21 21 21 21 20 19 18 18 18 18 18 17 17 18 19 20 20 20 20 20 21 21 21 22 22 22 22 22 23 23 24 24 25 25 25 24 24 24 24 23 23 23 24 23 23 23 23 24 24 25 25 25 25 26 26 26 26 27 27 27 27 28
21 20 21 21 21 23 25 26 26 26 26 26 25 24 23 24 24 23 22 22 22 23 23 23 22 21 22 24 26 27 26 24 23 22 21 21 21 22 23 23 23 22 21 20 20 20 19 18 17 18 18 19 19 20 20 20 21 21 22 23 23 23 23 23 23 24 25 26 26 26 26 26 26 26 26 26 27 27 27 27 26 26 26 26 26 26 26 26 27 27 27 27 27 27 27 27 27
21 21 22 22 23 24 26 27 28 28 27 27 26 25 25 25 24 23 24 23 23 24 24 25 25 24 23 24 25 27 27 27 26 24 22 22 22 22 23 24 24 24 23 23 23 23 22 21 20 19 19 20 20 20 20 20 21 21 22 23 23 24 24 24 24 25 26 26 27 27 27 27 28 28 28 29 29 30 30 30 30 29 29 29 29 29 28 29 29 29 28 28 29 28 28 28 28
21 22 23 24 25 26 27 28 28 29 28 27 26 26 26 25 23 24 25 24 24 25 25 26 28 28 28 27 26 26 27 27 27 25 24 23 23 23 23 23 24 23 23 23 24 24 24 24 23 21 21 21 21 22 22 22 22 22 22 23 23 24 25 25 26 26 26 26 27 27 28 28 28 28 29 30 31 31 32 32 33 32 32 32 33 32 32 32 32 32 31 30 31 30 30 30 29
23 23 24 25 27 28 29 29 29 30 29 29 27 27 28 27 25 25 25 25 25 25 26 28 29 30 31 31 30 28 28 26 25 25 25 24 24 24 24 23 23 23 22 23 23 24 25 26 25 24 23 23 23 23 23 23 23 23 24 24 25 25 25 26 27 27 27 27 27 28 28 28 28 29 29 30 31 32 33 34 34 35 35 35 35 35 35 35 34 34 34 33 34 33 33 32 31
25 26 26 28 29 29 30 30 30 30 30 30 29 28 29 27 26 26 26 25 25 25 27 29 30 31 32 32 32 31 30 29 27 25 24 23 24 24 24 24 25 24 24 23 24 24 25 26 27 27 27 26 25 25 25 25 25 25 26 26 27 27 27 28 28 28 29 29 29 29 29 29 29 29 30 31 32 32 33 34 35 36 37 36 37 37 37 37 37 36 36 36 36 36 36 35 34
28 29 29 30 31 31 32 31 31 31 31 31 30 29 29 29 27 28 29 28 25 25 27 29 30 32 31 31 31 30 30 30 29 28 25 23 23 24 24 24 25 25 25 25 25 25 25 26 27 28 29 29 28 28 28 27 27 28 28 28 28 29 29 29 29 29 30 30 31 31 31 31 30 30 31 31 32 33 33 34 35 36 36 37 38 38 39 38 38 38 38 37 37 37 37 36 36
30 31 31 32 32 32 32 32 32 32 32 32 31 29 28 29 29 29 31 30 28 27 28 30 31 31 30 30 30 29 28 28 28 27 26 24 24 25 26 25 24 25 25 26 26 26 25 25 26 28 30 30 31 31 31 30 30 30 30 30 30 31 31 31 31 31 31 32 33 33 33 33 32 32 32 32 33 33 34 34 35 35 36 37 38 38 39 39 39 39 39 38 37 37 38 37 37
32 33 32 32 33 33 33 33 32 32 33 33 32 30 27 27 28 29 32 32 30 29 30 31 32 30 29 29 28 27 26 26 25 25 24 24 24 25 26 26 26 25 25 26 27 27 27 26 26 27 28 30 31 32 32 32 32 32 32 32 32 33 33 32 33 33 33 33 34 34 34 35 34 34 33 34 34 35 34 34 35 35 36 37 37 38 38 38 39 39 39 38 37 37 38 37 37
33 34 34 33 33 33 32 32 31 32 33 33 34 32 26 25 27 29 32 32 31 30 30 32 31 30 29 29 28 27 26 26 26 26 26 26 26 26 26 26 26 27 27 27 28 28 28 29 29 29 28 29 31 32 33 34 34 34 34 34 34 34 34 34 34 34 34 34 34 34 35 35 36 36 35 36 36 36 36 36 36 36 36 36 37 37 38 38 39 39 39 39 38 37 38 38 37
34 35 35 34 33 32 31 32 31 32 34 34 35 34 28 24 25 29 32 33 33 32 31 32 30 29 29 29 29 28 27 27 27 27 27 28 28 27 26 26 26 27 28 28 29 29 30 31 31 31 31 30 31 32 33 34 34 34 35 35 35 35 36 36 36 36 36 36 36 35 35 35 36 36 37 37 38 38 39 38 38 38 39 38 37 38 39 39 39 40 40 40 39 38 38 39 38
34 35 35 34 34 32 31 31 31 33 35 35 34 33 29 25 26 28 30 33 34 33 32 30 28 27 27 27 26 27 27 28 27 26 26 26 27 27 26 26 26 27 28 28 29 30 30 31 32 33 33 33 32 32 32 33 34 35 35 35 35 36 36 37 38 38 38 38 37 37 36 36 37 37 37 38 39 40 40 41 41 41 41 40 39 39 39 40 41 41 41 41 40 39 39 39 40
33 35 35 34 35 35 33 31 32 34 35 35 34 33 31 29 29 29 30 32 33 33 32 30 28 27 26 24 22 22 23 24 25 25 24 25 25 26 25 25 25 26 26 27 28 29 30 31 32 33 33 33 33 33 33 33 33 34 34 34 35 35 36 37 38 39 39 39 39 39 38 38 38 38 39 39 40 41 41 42 43 44 44 43 42 41 41 42 42 43 42 42 42 41 40 40 40
33 35 36 36 37 37 35 33 34 37 37 37 35 35 34 33 33 32 33 35 34 32 32 30 29 27 24 22 21 20 20 20 21 23 23 24 25 25 25 25 25 25 26 26 27 28 29 30 32 33 33 33 33 34 34 33 33 33 34 34 34 35 36 37 38 39 40 40 40 40 40 40 40 40 40 40 40 41 42 43 44 46 46 46 45 45 44 44 44 44 44 44 44 44 43 41 41
34 36 37 38 38 38 37 36 38 39 39 38 37 37 36 35 34 34 36 37 34 31 30 30 29 27 25 23 22 21 22 21 22 23 24 24 25 25 26 26 26 26 26 27 27 27 28 29 30 32 33 33 33 34 35 35 34 34 34 34 35 35 36 36 37 39 40 40 41 41 40 40 40 40 40 40 40 41 41 42 44 45 47 48 48 47 46 46 46 47 47 47 47 46 45 44 43
37 38 39 39 39 39 37 37 39 40 39 37 37 37 36 35 33 33 35 35 33 32 31 29 28 28 28 27 26 26 27 27 27 27 28 28 28 28 28 28 28 28 28 29 29 29 29 29 30 31 32 33 34 35 36 36 36 36 36 35 35 35 36 36 37 38 39 40 40 41 40 40 40 40 40 40 40 41 42 43 43 44 46 48 49 50 49 49 49 49 49 49 49 48 48 47 46
40 40 41 41 40 38 37 38 38 39 39 37 36 37 36 34 32 33 35 34 32 33 32 29 28 28 29 29 29 30 30 31 32 32 32 33 33 33 33 32 32 32 32 32 32 32 31 30 30 31 32 33 34 35 36 37 38 38 38 37 36 36 37 37 38 38 39 40 41 41 41 41 41 41 41 41 41 42 42 43 44 44 45 46 48 49 51 51 51 51 51 51 51 51 50 50 50
41 42 43 42 40 38 37 37 37 37 37 36 36 36 35 32 31 32 33 32 31 32 32 30 28 29 30 30 31 31 32 32 33 34 34 34 35 35 35 36 36 36 36 36 36 35 33 31 30 31 32 34 35 36 37 38 39 40 40 39 39 39 39 39 40 40 40 41 41 42 42 42 42 42 42 42 42 42 42 42 43 44 44 45 46 47 49 50 51 52 53 53 54 54 53 53 53
42 43 43 40 38 38 38 36 36 36 36 36 36 36 35 29 28 30 30 30 31 32 32 30 30 31 31 32 32 33 33 34 34 35 36 36 37 37 38 38 39 40 40 40 40 38 36 35 35 34 34 34 36 37 38 38 39 41 41 42 42 42 41 41 41 41 42 42 42 42 42 43 43 43 43 43 43 43 43 43 42 43 44 44 45 46 47 48 50 51 52 53 54 55 55 55 55
42 42 40 37 36 37 37 36 36 36 36 37 37 39 37 29 28 31 30 30 33 33 33 32 33 33 33 33 34 35 37 37 38 38 39 40 41 41 42 42 43 43 43 42 41 40 40 40 40 38 37 36 36 38 39 39 40 41 42 43 44 43 43 43 42 42 42 42 42 42 42 43 43 44 44 44 44 44 44 43 43 43 44 44 45 46 46 47 48 49 50 51 53 54 54 55 55
41 38 37 36 36 37 36 36 37 36 37 39 40 43 40 32 31 33 32 34 35 34 34 35 35 36 36 37 37 38 40 40 41 41 42 43 44 44 44 43 43 42 42 41 40 41 42 43 43 41 39 37 37 39 41 41 42 43 44 44 43 43 43 44 44 43 43 43 43 43 43 43 43 43 44 45 45 45 45 45 45 45 45 45 46 46 47 47 48 49 50 51 52 53 53 54 55
38 36 35 35 35 35 36 37 38 39 40 41 43 45 43 38 36 34 35 38 37 35 36 37 38 38 38 40 40 41 43 44 44 45 46 47 46 45 43 41 39 38 37 37 38 39 41 43 43 43 42 40 40 41 42 43 44 45 46 45 44 44 44 45 45 46 46 45 45 45 46 46 46 46 45 46 46 47 47 47 47 47 47 47 48 48 48 49 49 50 50 51 51 52 53 54 54
35 34 34 35 35 35 36 38 39 41 43 44 45 44 44 44 42 37 37 40 38 36 38 38 39 40 42 43 43 44 46 47 47 47 47 46 45 42 40 38 36 35 35 35 37 39 41 41 41 42 43 43 43 43 44 45 46 47 47 47 46 46 46 46 47 48 48 49 50 50 51 51 51 50 50 50 50 50 50 51 50 51 50 50 50 51 51 51 51 51 52 52 52 53 54 54 54
33 33 34 35 35 36 38 38 40 43 44 47 47 42 44 48 45 41 42 40 38 39 40 40 41 43 45 46 47 47 48 50 50 48 46 45 43 40 38 37 36 35 35 36 39 41 43 42 41 41 43 44 45 46 46 47 48 48 48 48 48 48 49 50 51 52 53 54 55 56 56 57 57 57 56 56 55 55 55 55 56 55 55 55 55 55 55 55 54 54 54 54 54 55 55 55 55
34 34 35 36 37 39 39 40 43 43 46 49 44 39 44 50 47 46 46 43 42 44 44 45 46 46 48 49 49 49 48 50 51 49 47 45 44 42 40 38 38 37 37 37 40 43 46 45 44 44 45 46 47 48 48 49 50 50 51 51 51 51 52 53 55 56 57 58 58 59 59 60 61 62 62 62 61 60 60 60 60 60 60 60 59 59 59 59 59 59 58 58 58 58 58 58 57
36 36 37 38 39 40 40 42 43 44 47 48 41 37 44 50 50 48 47 46 47 49 49 50 50 50 51 52 52 51 49 49 51 51 50 47 45 44 42 41 41 41 40 40 41 44 47 48 47 47 48 48 49 50 51 52 52 53 54 54 54 55 55 56 57 58 59 61 61 62 62 63 63 64 65 65 65 64 64 64 64 65 65 64 64 64 64 64 64 64 64 63 63 62 62 61 61
37 38 39 39 40 41 41 43 42 44 48 45 39 39 44 50 52 49 48 49 50 51 51 52 53 52 52 54 55 54 51 50 51 52 51 49 47 45 44 43 43 43 43 43 43 45 48 50 51 51 51 52 52 53 54 55 56 56 57 58 58 59 60 62 63 64 65 66 67 66 66 67 67 67 68 68 68 67 67 67 68 68 69 69 69 68 67 67 67 67 67 67 67 67 66 66 65
39 40 40 40 41 42 43 44 43 45 47 44 41 44 47 50 52 50 50 52 53 54 53 52 52 52 53 55 56 55 53 51 50 51 51 50 49 47 45 43 43 43 45 45 45 47 49 51 54 54 55 56 56 56 57 58 60 61 62 64 65 66 67 69 71 73 74 74 73 72 71 71 71 71 71 71 71 71 71 71 71 71 72 72 72 72 71 71 70 70 70 70 70 71 71 71 69
41 40 40 41 42 44 44 44 45 46 47 45 46 49 51 52 51 50 51 53 54 55 54 53 53 54 56 57 56 55 53 52 50 50 51 51 50 48 46 43 42 43 45 47 48 49 50 52 54 57 58 59 61 61 60 60 62 64 66 69 71 72 73 73 73 75 77 78 78 78 77 76 74 74 73 74 74 75 75 74 73 73 73 73 74 74 74 74 73 73 73 73 72 73 73 74 74
41 40 40 42 43 45 46 46 47 48 47 46 49 52 54 54 52 53 53 54 55 55 54 55 55 57 58 57 55 54 52 51 50 50 51 51 51 50 48 45 44 44 46 49 51 52 52 53 55 58 60 62 64 65 65 64 65 67 69 71 73 75 76 76 77 77 78 79 81 82 82 81 79 77 76 76 76 76 77 77 77 76 75 75 74 74 75 75 76 76 76 75 75 75 75 76 76
41 41 42 44 45 47 48 48 50 51 49 49 52 56 57 55 54 54 55 55 56 56 56 57 58 59 60 58 55 53 51 51 50 51 51 52 52 51 51 49 48 48 48 50 53 55 55 56 57 59 61 64 67 69 70 70 70 72 74 74 74 76 77 78 79 80 80 80 81 82 83 83 82 81 80 79 78 77 77 77 77 77 77 77 76 76 76 76 77 78 78 78 78 77 77 78 78
43 44 46 47 47 48 50 51 52 53 53 53 55 58 58 56 55 55 56 56 57 57 58 59 60 60 60 58 55 53 52 51 51 52 52 53 54 54 54 53 53 53 54 54 56 58 60 61 62 62 63 65 68 71 73 74 74 76 76 75 74 75 76 76 77 77 78 78 78 78 79 81 82 82 82 81 80 79 77 76 76 75 75 75 76 76 77 77 77 79 80 80 81 80 80 80 80
47 48 49 49 49 50 52 53 52 53 56 56 55 57 57 56 56 57 57 57 58 59 59 60 60 59 57 55 54 53 52 52 52 53 53 54 55 55 56 57 57 58 58 59 60 62 64 66 66 66 66 66 68 70 72 74 75 76 75 74 73 73 74 74 74 75 75 76 77 76 77 77 79 80 82 82 82 81 79 78 78 77 76 76 76 76 76 77 77 78 80 81 82 83 83 82 82
49 50 50 49 50 51 51 53 54 55 58 58 56 56 57 58 59 59 59 60 60 60 60 59 58 56 54 54 53 54 54 54 54 54 55 55 56 57 58 58 59 60 60 62 63 64 66 67 68 68 68 68 68 69 70 72 73 74 74 74 73 73 74 74 75 75 76 76 78 78 78 77 77 77 78 79 79 80 80 81 81 81 82 81 81 80 79 79 78 78 79 80 82 83 84 85 85
48 49 49 49 50 51 51 53 55 56 59 60 58 57 57 59 61 62 62 62 61 60 60 58 56 55 54 54 54 55 55 55 56 56 56 56 57 58 59 59 60 60 61 61 62 63 63 64 65 66 67 69 70 70 70 71 72 73 74 75 76 77 78 78 78 78 79 80 81 81 81 80 79 79 79 79 79 80 81 81 82 83 83 84 85 85 84 83 83 82 82 82 82 82 84 85 86
48 48 49 49 50 52 53 54 56 58 60 61 62 62 61 62 64 65 64 62 61 60 59 57 56 56 55 55 55 55 56 56 57 57 58 58 59 59 59 59 59 60 60 61 62 63 64 65 67 68 70 72 73 73 73 74 74 75 75 76 77 78 79 80 80 81 81 82 83 84 84 84 84 84 85 85 85 84 84 84 84 85 85 86 86 87 87 87 86 86 86 86 86 86 85 85 86
49 49 50 51 52 53 55 57 58 59 62 64 66 68 68 65 65 66 65 62 61 59 58 57 57 56 56 56 56 56 56 57 58 59 59 59 60 60 61 61 63 64 66 67 68 69 70 71 72 73 74 75 75 76 76 76 76 77 77 77 77 78 79 81 82 82 82 83 84 85 86 87 88 89 89 90 91 91 90 89 89 89 89 89 90 90 91 91 90 90 90 91 91 91 90 89 89
50 51 52 53 54 56 58 60 61 62 65 66 66 69 69 65 64 65 63 61 60 58 56 56 55 55 54 55 55 56 57 59 60 61 61 62 62 63 65 66 68 69 71 72 73 74 75 75 76 77 78 78 78 79 79 79 79 80 80 80 80 82 84 85 86 87 88 88 89 89 90 90 90 91 92 92 93 93 93 93 93 92 92 93 93 94 94 94 94 94 94 95 96 96 95 94 93
Wind_Direction
94 83 69 59 51 45 42 37 26 15 15 14 359 349 352 352 355 360 2 6 8 8 4 1 359 359 358 360 5 5 2 4 7 11 16 13 12 15 17 17 14 13 9 358 347 334 323 319 324 332 338 340 343 357 65 115 146 190 232 241 246 250 252 248 244 247 252 259 264 268 269 268 267 265 262 260 257 255 254 256 257 258 258 257 257 258 259 260 261 262 263 263 263 262 262 262 262
98 83 69 53 42 36 32 30 20 8 4 2 351 343 347 345 345 351 353 354 357 358 358 355 352 351 352 355 359 1 0 0 1 8 13 11 10 12 17 18 15 15 15 11 1 348 328 310 305 308 313 316 317 311 298 276 227 204 215 227 239 245 249 250 248 246 248 254 260 266 267 266 266 264 264 264 260 256 254 253 255 258 259 258 258 257 258 259 259 260 260 262 264 264 265 264 263
106 82 66 43 26 17 9 9 10 359 349 347 343 339 343 343 340 342 345 345 347 348 348 348 348 347 347 348 351 354 355 358 0 6 9 7 8 9 15 18 15 15 16 18 12 4 350 327 308 299 295 295 300 301 294 284 272 255 236 225 227 235 240 245 248 248 247 249 254 261 266 267 267 266 265 264 262 260 257 255 256 259 261 261 260 259 259 259 259 258 259 260 262 264 264 263 262
115 86 31 4 0 356 354 352 353 346 339 340 338 336 341 342 335 334 337 339 340 342 341 340 344 345 345 345 347 349 349 353 354 356 359 2 5 5 10 14 13 14 15 17 15 11 7 356 338 317 298 288 288 289 288 284 280 272 261 248 238 234 235 237 241 245 247 248 250 255 260 264 266 267 266 264 262 261 260 259 258 259 261 262 262 262 260 259 258 258 259 260 261 263 263 263 262
96 63 352 347 346 344 347 340 334 332 333 336 334 332 336 337 331 329 332 336 338 339 338 336 338 341 344 342 340 342 341 339 336 338 347 353 357 356 1 5 4 9 13 13 13 11 10 7 360 347 326 306 291 284 281 280 281 277 269 262 256 251 244 239 237 239 243 245 247 251 254 257 260 263 264 263 261 259 258 257 258 259 259 259 260 261 260 259 258 259 259 260 261 262 262 263 264
25 353 338 337 334 337 340 331 324 326 330 329 329 328 330 333 330 329 331 335 337 337 335 331 333 335 337 336 333 332 330 330 328 328 333 336 343 344 346 353 352 353 2 6 7 7 5 4 2 358 350 335 315 295 282 278 278 277 274 269 264 261 257 252 247 244 243 243 244 246 249 251 254 256 258 258 257 256 256 255 255 256 258 258 258 258 257 257 257 257 257 258 259 259 260 261 263
346 334 331 329 328 332 328 322 317 321 327 325 327 328 329 334 334 334 333 334 336 335 330 326 330 332 331 331 329 326 323 323 321 320 321 320 325 328 329 336 339 337 342 351 355 358 358 358 357 355 352 346 336 320 299 285 278 275 274 273 270 265 262 260 257 254 252 249 247 246 247 248 249 250 252 253 253 254 255 255 253 253 255 256 256 256 256 256 256 255 254 254 255 256 257 258 258
328 322 322 320 321 324 318 315 313 320 325 322 328 330 330 334 334 336 336 334 336 335 329 327 332 331 329 328 325 322 316 313 311 311 311 310 313 316 317 320 324 324 325 332 337 340 344 348 349 349 348 345 339 332 321 304 288 279 275 272 272 270 267 264 261 259 258 257 255 252 251 251 251 250 250 252 252 252 253 253 253 252 252 253 253 254 254 255 255 255 254 253 253 253 254 255 255
319 318 319 318 318 318 314 314 314 321 325 321 327 329 326 331 333 333 334 333 336 335 328 327 333 333 333 332 327 322 316 312 306 304 303 303 304 305 305 308 311 312 312 314 319 322 325 329 332 336 338 339 338 333 326 317 306 294 282 276 272 271 270 268 266 263 261 260 259 258 257 258 257 255 254 253 253 252 252 252 253 253 253 253 253 253 253 254 255 255 255 254 253 253 253 254 255
317 317 317 316 315 314 313 313 314 319 321 318 323 323 322 327 328 325 328 330 333 333 327 326 331 333 335 336 331 326 324 320 310 305 303 300 298 296 295 297 300 302 303 303 304 306 309 311 313 316 320 324 327 329 327 321 314 307 298 288 279 273 271 269 268 266 264 262 261 260 260 260 260 260 259 258 256 254 254 254 254 255 255 255 254 254 254 254 255 256 256 256 255 254 254 254 255
311 311 312 311 310 311 312 312 313 314 314 315 316 317 320 322 322 320 322 324 326 327 323 322 325 328 330 333 330 330 333 327 317 312 306 301 296 293 291 291 292 294 296 296 295 296 297 298 300 301 304 307 311 315 319 319 317 312 307 300 292 284 277 272 269 267 266 264 262 262 261 260 260 261 261 262 261 260 259 258 258 257 257 257 256 256 256 255 256 257 257 258 257 256 256 256 257
305 306 308 307 308 308 310 312 312 314 314 315 317 319 320 318 316 316 317 316 317 318 316 315 316 320 323 324 325 329 333 329 322 315 307 300 296 292 289 288 287 288 289 290 289 288 287 289 290 291 293 295 297 300 303 307 309 309 307 303 297 292 286 279 274 270 267 265 264 263 262 261 260 261 261 262 263 263 263 262 262 261 260 260 259 259 259 258 258 258 258 258 258 258 258 259 259
302 304 305 305 306 307 309 310 310 313 315 316 318 319 318 312 310 312 312 312 312 312 312 310 312 316 317 316 317 323 330 327 322 315 306 299 293 289 286 285 285 284 284 285 285 284 282 281 282 283 285 286 287 288 290 292 294 296 298 298 297 294 291 288 283 278 274 270 267 265 263 262 261 261 260 260 262 263 263 263 264 263 263 262 262 262 262 261 261 260 260 260 260 260 261 261 261
300 301 302 303 304 305 306 306 306 308 310 312 314 312 310 308 308 310 311 310 309 309 309 308 310 312 312 310 311 317 323 322 319 314 309 304 296 288 283 283 283 282 282 282 283 282 280 278 277 277 278 280 281 282 282 282 282 284 286 289 290 291 291 290 288 285 281 277 273 269 266 264 262 261 261 260 260 261 261 261 262 262 262 262 262 261 261 262 262 261 261 261 261 262 262 262 262
298 298 299 299 300 301 301 300 300 302 304 306 306 307 308 309 310 310 310 308 307 309 308 307 310 310 307 305 306 311 313 312 313 312 311 309 303 292 284 281 280 281 282 282 282 282 282 280 278 277 276 276 277 278 278 278 277 277 279 280 281 282 283 285 285 284 283 281 278 274 270 267 265 263 262 261 260 260 260 260 260 260 260 260 260 260 260 261 261 261 261 261 261 261 262 262 262
297 296 296 296 297 297 296 296 296 298 300 301 302 306 308 310 309 309 308 305 306 308 306 308 313 311 306 302 302 306 307 304 305 305 305 305 303 297 287 281 279 280 282 283 284 284 284 283 282 281 279 278 277 277 277 277 276 276 275 274 274 275 276 277 278 279 280 279 278 276 274 272 270 268 267 265 263 261 261 261 260 259 260 260 260 260 260 260 261 261 262 262 262 262 262 262 262
296 294 294 294 294 294 293 293 294 296 297 299 302 305 307 308 308 308 305 302 303 303 304 312 316 311 305 303 301 302 302 301 298 296 297 299 299 298 293 286 282 280 282 283 286 287 287 286 286 285 284 282 279 277 275 274 273 273 273 272 272 271 271 271 271 272 273 273 273 274 274 274 273 272 270 269 267 264 262 261 260 260 260 260 260 260 261 261 262 262 262 263 263 263 263 263 263
293 292 291 291 292 293 293 293 294 296 297 299 301 304 305 306 307 309 306 305 303 300 305 314 314 308 305 304 302 300 299 298 296 292 290 289 290 294 297 294 290 286 284 285 287 287 287 288 289 288 286 284 282 278 275 273 271 271 271 271 272 271 269 268 267 267 267 267 267 268 269 271 272 272 270 269 268 266 263 262 262 261 261 260 260 260 260 261 261 262 262 263 263 264 264 264 264
290 288 288 289 290 292 293 294 295 296 297 299 302 305 307 307 308 308 308 307 302 300 308 315 312 307 305 304 302 300 297 295 293 291 290 288 286 288 293 294 294 293 291 289 286 284 285 288 289 289 287 286 284 280 277 275 272 270 270 270 270 270 269 267 265 264 264 264 263 263 264 266 267 268 269 269 268 267 265 263 263 262 262 262 262 261 261 260 260 260 261 261 262 263 263 264 264
287 285 285 286 289 291 293 294 296 297 299 300 303 306 307 307 307 306 307 306 301 302 309 314 311 307 304 303 300 298 295 292 290 290 291 292 291 290 289 288 289 289 289 288 285 284 285 288 290 290 290 289 286 283 280 277 276 274 272 270 269 268 267 266 265 263 262 262 261 261 262 262 263 264 265 266 267 267 265 264 263 262 262 262 262 262 261 261 260 261 261 261 262 262 263 263 264
285 285 284 285 288 290 292 294 295 297 298 300 301 304 304 304 305 306 306 304 300 303 307 309 308 305 302 301 299 297 295 293 293 293 292 292 292 292 290 289 289 287 286 287 287 288 288 289 290 291 293 292 290 287 284 281 279 276 274 272 270 268 266 264 263 262 261 259 259 259 259 259 259 260 261 262 263 264 264 264 264 263 263 262 262 262 263 262 262 261 262 262 262 263 263 263 264
282 282 283 285 288 290 292 295 296 298 299 301 302 304 303 302 303 304 304 302 300 300 302 303 303 301 299 297 296 296 295 294 294 295 297 295 292 290 289 289 290 290 290 289 289 289 289 288 287 288 290 291 292 291 290 288 284 280 277 274 272 270 267 265 263 261 260 259 258 258 257 257 257 257 258 259 260 260 261 262 262 263 264 264 263 263 263 263 263 262 262 263 263 263 263 264 264
276 277 279 284 287 289 292 295 296 296 297 299 300 301 298 298 300 300 299 299 298 299 299 299 299 298 296 293 293 293 294 295 295 297 299 298 295 290 287 287 287 289 290 289 289 289 288 287 285 285 286 287 289 290 291 290 288 285 282 278 275 272 270 267 265 263 262 261 260 258 257 257 257 256 256 256 257 258 258 259 260 260 262 263 263 262 263 263 263 263 263 263 263 263 263 263 263
271 271 274 280 284 288 290 292 292 293 294 294 296 297 294 295 297 295 295 296 297 297 297 297 297 296 295 293 292 292 294 296 298 299 298 296 293 290 289 288 287 287 286 284 284 284 284 282 281 280 279 280 282 284 286 286 287 286 285 282 279 275 272 269 267 265 264 263 262 261 259 258 258 257 257 257 258 258 259 258 258 258 258 260 261 262 262 262 263 263 263 263 264 264 263 263 263
273 272 274 279 283 286 288 289 289 291 293 294 296 295 293 294 294 291 291 292 293 295 295 294 294 294 293 294 295 295 296 296 297 297 296 294 293 291 291 289 287 286 284 281 278 276 275 275 275 273 271 270 271 273 276 278 280 281 281 281 280 277 275 271 268 266 265 264 263 262 261 260 259 259 259 259 260 260 260 260 259 257 256 257 259 260 261 262 263 263 263 263 264 264 264 264 264
277 277 279 281 284 287 287 288 290 292 294 294 294 292 291 291 292 290 289 288 289 291 291 290 291 290 291 293 295 296 298 298 297 295 294 294 293 293 291 289 287 284 282 278 275 271 269 269 270 270 269 267 266 265 265 267 269 271 272 274 275 276 275 272 269 267 265 264 263 262 261 260 259 259 260 262 263 263 264 263 262 260 258 257 257 258 259 260 262 262 263 263 264 265 265 265 265
280 281 282 284 286 287 288 290 292 293 294 293 293 292 292 293 294 293 291 290 289 290 289 287 287 287 289 292 293 295 297 298 297 296 296 295 294 293 291 288 285 283 280 276 273 270 268 266 267 269 269 269 267 265 263 262 262 263 264 266 268 270 271 271 270 268 266 264 263 262 262 260 259 259 260 261 263 265 266 266 265 264 261 259 257 257 258 259 260 261 262 262 263 265 266 266 266
282 283 284 285 286 286 288 291 292 294 293 292 293 291 293 296 297 295 293 293 294 292 289 287 286 286 289 291 292 294 295 295 294 294 293 291 289 287 285 283 280 278 277 277 275 272 269 266 265 265 266 268 268 268 266 265 263 263 263 263 264 265 267 268 269 269 268 266 264 263 262 261 260 259 259 260 262 263 265 266 266 265 263 262 260 259 259 259 259 260 260 261 261 263 264 265 265
283 284 284 284 285 287 289 290 292 293 292 292 292 291 292 295 297 296 293 293 294 292 289 287 285 286 289 291 292 293 292 292 291 290 286 281 277 275 276 278 279 278 276 276 276 274 271 268 265 263 263 265 266 267 267 266 266 265 264 263 263 264 264 265 266 267 268 268 268 266 264 263 261 259 259 259 260 261 262 263 264 264 263 263 262 262 261 261 261 261 261 261 261 261 263 263 264
284 285 284 284 284 286 288 290 291 291 290 290 290 290 292 295 295 293 291 291 290 289 287 287 288 290 292 291 290 288 286 285 286 286 285 281 278 275 275 277 279 279 279 277 276 275 273 271 268 265 263 262 264 266 267 266 266 266 265 264 264 263 263 263 263 263 265 266 267 268 267 265 264 262 260 258 258 259 260 260 261 262 262 262 263 263 263 263 263 263 263 263 262 262 262 263 263
286 285 285 286 286 287 289 290 291 290 289 289 289 290 292 293 291 288 288 288 287 286 285 287 290 291 289 288 287 286 285 284 285 286 287 287 286 284 282 281 280 280 281 280 278 277 275 273 271 269 267 265 264 265 267 267 267 267 267 266 266 265 264 263 262 262 262 262 263 265 266 265 265 264 262 261 259 257 258 258 259 260 260 261 261 262 263 264 264 265 265 265 265 264 263 264 264
286 286 286 288 290 290 290 291 291 289 288 287 287 290 292 291 286 284 284 284 286 287 288 290 291 289 288 287 286 286 286 288 289 289 289 288 288 288 286 285 283 281 280 279 278 277 276 275 273 271 270 269 268 266 266 266 267 268 268 268 268 268 267 266 265 264 263 262 262 262 262 263 263 263 264 263 262 259 257 257 257 258 259 259 259 260 261 263 264 265 266 267 267 266 265 265 265
285 285 288 291 292 292 292 292 290 288 287 288 290 291 293 292 289 289 287 285 287 290 293 295 294 291 290 289 288 287 286 287 289 290 290 289 288 289 289 288 287 285 284 281 278 276 276 276 275 274 272 271 271 269 267 265 265 266 266 267 268 268 268 268 266 265 264 264 263 263 262 261 260 261 262 263 263 261 259 257 257 257 258 258 258 257 258 260 262 263 265 266 267 267 266 266 266
284 286 290 292 293 294 295 295 291 289 289 290 293 294 294 295 296 298 295 293 294 295 296 296 294 293 291 290 290 289 287 287 287 288 289 289 290 290 291 292 292 291 290 289 285 282 279 277 277 277 275 274 273 271 270 267 266 265 265 266 266 267 267 268 267 267 266 265 264 264 264 262 261 260 260 261 261 262 261 259 258 257 257 257 258 257 257 258 259 261 262 264 265 266 266 266 266
284 287 290 292 294 295 297 296 292 290 289 291 294 293 293 296 298 297 294 294 296 297 294 292 291 292 292 293 292 290 289 288 288 288 290 291 291 291 292 292 293 293 293 293 291 289 286 283 281 279 278 276 275 274 272 271 269 267 267 266 266 265 265 265 265 266 266 266 266 266 265 264 263 262 261 260 261 262 263 263 261 260 259 258 257 257 257 257 258 259 260 261 263 265 266 266 266
284 286 288 291 293 294 295 293 290 289 289 291 292 292 293 295 296 294 291 291 292 291 289 288 290 291 292 292 292 292 293 293 292 293 295 296 296 296 296 295 295 295 294 293 293 292 291 289 285 282 280 278 276 275 274 273 271 270 269 268 267 266 265 264 264 265 265 266 267 267 267 266 265 264 263 262 262 263 264 265 265 264 262 261 259 258 257 257 257 257 258 260 261 263 265 266 266
283 284 287 290 291 292 291 289 288 289 289 291 292 291 292 294 294 293 292 291 290 288 287 287 288 288 288 289 290 292 292 293 293 293 293 294 295 295 296 296 297 297 296 295 294 291 289 288 287 285 284 281 278 276 274 273 272 271 270 269 268 266 265 265 264 264 264 265 266 267 267 267 267 266 265 263 263 264 265 266 266 267 266 265 263 262 260 259 258 258 258 259 260 262 263 264 265
281 283 287 289 290 290 288 286 286 287 288 289 289 289 290 290 291 291 291 291 289 288 287 287 286 284 284 286 288 289 289 289 288 288 287 287 287 288 289 290 291 293 294 294 294 291 287 286 286 287 285 283 280 277 273 272 271 270 269 268 267 267 266 265 265 265 264 264 264 264 265 266 266 267 266 265 264 264 265 265 266 266 267 267 266 266 265 263 262 261 260 260 260 261 262 263 264
281 283 286 288 288 286 285 285 285 284 285 286 288 291 292 290 290 290 290 289 288 288 288 288 287 286 286 287 288 288 288 287 287 287 286 286 286 286 285 285 286 286 287 288 289 288 286 286 287 287 286 283 280 277 273 270 269 268 268 268 267 267 267 266 266 265 265 265 265 264 264 264 265 266 267 267 266 266 265 265 265 265 265 265 265 265 266 265 265 264 263 262 261 261 262 262 263
280 282 283 284 283 282 283 284 284 285 287 290 293 295 296 296 292 291 290 288 288 289 291 292 292 292 292 292 292 291 291 290 290 290 290 290 290 289 288 288 288 287 287 287 286 284 283 284 287 287 285 282 280 277 274 270 268 267 265 265 265 265 266 266 265 264 264 264 265 265 265 265 264 265 266 267 268 268 267 267 266 265 265 264 264 264 264 264 265 265 265 264 263 263 262 262 262
278 279 280 280 280 281 284 285 286 289 292 295 296 296 297 297 292 291 291 289 289 291 293 294 294 294 295 294 294 293 292 293 294 294 294 294 294 294 293 292 292 290 289 288 284 279 280 283 285 285 283 280 277 275 274 271 269 268 264 263 262 262 262 262 261 261 261 262 263 264 264 264 264 264 265 265 266 267 268 268 267 267 266 265 265 264 263 263 263 264 264 265 265 265 264 263 262
276 277 278 279 280 283 285 287 290 292 293 295 295 293 295 295 290 289 289 288 289 291 293 293 294 295 295 294 294 294 294 294 295 295 295 295 296 296 296 295 293 290 285 282 276 269 271 277 280 281 278 276 274 272 270 268 267 266 264 262 260 259 258 257 256 257 258 260 261 262 263 263 263 263 263 264 264 265 266 266 267 267 267 266 266 266 265 264 264 263 263 263 264 264 265 264 263
275 276 277 278 280 282 283 286 289 291 292 292 290 290 293 293 290 288 286 285 288 290 291 292 293 294 294 295 296 297 298 298 297 296 296 296 296 296 295 293 290 286 280 275 269 261 262 269 271 273 274 272 270 268 265 264 263 262 260 259 257 256 255 253 252 252 254 257 259 261 262 263 264 263 263 263 264 264 264 265 265 266 266 266 266 266 266 265 265 264 263 263 262 262 263 263 264
275 275 276 278 280 280 281 283 285 287 289 288 287 289 292 293 291 288 286 287 289 290 289 290 291 292 294 296 299 301 301 301 300 300 299 299 299 298 296 291 287 284 279 272 266 259 260 265 266 265 268 267 265 263 261 260 260 260 258 256 255 254 253 252 252 253 255 258 260 261 261 262 263 264 264 264 264 265 265 266 266 266 267 266 266 266 266 266 266 265 265 264 263 263 262 262 262
275 275 277 278 278 279 280 281 282 284 285 285 287 289 290 292 292 289 290 293 294 293 293 293 294 295 298 300 303 305 303 302 301 301 300 300 300 298 295 292 287 284 280 273 268 262 260 264 265 263 264 264 261 259 258 257 257 258 258 256 255 254 254 254 254 256 259 261 262 262 262 263 263 264 264 264 265 265 266 266 267 268 268 268 268 268 267 267 267 267 267 266 265 264 263 263 262
276 278 278 278 278 278 278 279 280 281 282 286 289 287 286 289 291 290 292 295 295 296 297 298 299 301 304 305 305 304 302 301 300 299 299 297 296 295 292 289 285 283 280 274 269 266 263 264 266 266 264 264 262 259 257 256 256 256 257 256 256 256 257 258 258 260 262 263 264 265 265 265 265 265 265 265 265 265 265 266 267 267 268 268 268 268 268 268 268 268 268 268 267 265 264 263 263
278 279 279 279 278 279 278 279 279 278 282 288 287 282 282 285 288 289 292 294 294 295 297 298 300 303 305 305 304 302 300 298 297 296 296 294 293 291 288 284 281 279 277 273 268 264 263 263 265 266 264 263 262 260 259 257 257 257 256 256 257 258 260 261 263 264 265 266 267 266 266 267 266 266 266 265 265 265 265 265 266 267 267 268 268 268 267 267 267 267 267 268 268 267 266 265 263
278 278 278 278 278 279 277 278 278 279 284 287 283 281 281 283 286 289 291 292 293 293 294 296 299 300 302 301 300 298 296 294 292 291 291 290 289 287 286 282 278 273 270 268 266 263 262 261 262 263 263 262 260 259 259 258 259 259 258 258 259 260 262 263 265 267 269 270 270 269 269 268 268 267 267 266 266 266 266 266 266 266 266 267 267 267 267 266 266 265 265 265 266 266 266 266 265
277 277 278 277 277 277 277 279 279 280 284 283 281 280 280 282 285 287 288 289 290 291 293 294 296 297 297 297 295 293 292 290 289 288 287 287 287 286 285 281 275 270 265 262 260 260 260 260 261 261 262 261 259 258 257 257 259 260 260 260 260 261 263 264 264 266 268 270 271 272 273 272 270 269 268 267 266 266 266 267 267 267 266 266 266 266 266 266 265 265 264 264 263 263 264 264 265
276 277 277 275 275 275 278 280 279 278 280 279 278 278 279 282 285 286 286 287 287 288 290 291 292 293 294 294 292 290 289 288 286 285 285 285 286 286 284 280 274 268 265 261 258 257 258 260 261 260 260 260 259 258 257 257 259 261 263 263 262 262 263 264 264 265 265 267 269 271 273 273 273 273 272 271 270 269 268 268 268 268 267 266 266 266 265 265 265 264 264 263 263 262 262 261 262
275 275 274 274 275 276 277 277 275 275 276 276 276 277 279 282 284 285 286 286 287 288 289 289 290 292 293 292 289 287 285 284 283 282 283 284 284 284 282 280 275 270 267 264 260 257 257 259 261 261 260 259 258 258 258 258 259 261 265 267 266 265 264 265 265 266 266 266 266 267 269 270 271 272 273 273 273 273 273 272 271 270 269 267 266 265 265 264 264 264 264 263 263 262 261 261 260
273 273 274 276 277 276 274 273 273 274 274 274 276 277 280 283 283 284 285 286 287 287 287 288 289 290 289 287 286 284 283 281 281 280 281 281 281 281 280 278 276 273 270 267 264 261 260 262 264 264 262 261 259 259 259 260 261 263 267 269 268 267 267 267 268 268 268 269 268 267 266 267 267 268 269 270 271 272 273 273 273 272 271 269 268 267 266 265 264 264 263 263 263 262 262 261 260
273 274 275 276 275 272 271 272 272 273 273 274 276 278 280 281 282 283 284 285 285 284 285 286 286 286 285 283 282 281 280 279 278 278 278 278 278 278 278 277 276 275 273 271 270 268 266 267 268 267 265 264 262 262 262 263 264 266 268 268 268 268 269 269 270 270 270 270 269 268 267 266 266 266 267 267 268 269 270 270 271 271 270 270 269 268 267 267 266 265 264 263 262 262 262 261 260
274 275 275 273 271 270 270 271 272 273 273 275 276 276 278 279 281 283 284 283 283 283 283 284 284 283 282 281 281 280 279 278 277 278 277 277 278 278 278 277 276 275 274 273 273 272 270 270 270 270 269 267 267 266 266 266 267 269 269 269 268 269 270 271 271 271 271 271 270 269 268 266 265 265 265 266 267 268 269 269 270 270 270 270 269 268 267 267 266 266 265 264 263 262 261 261 260
274 273 271 269 268 269 270 271 273 274 274 275 275 276 277 279 281 284 284 283 283 283 283 283 283 282 281 280 278 278 278 278 279 279 279 279 280 280 279 278 277 277 277 276 274 273 272 272 271 271 271 271 271 270 269 269 270 270 271 271 271 271 272 272 272 272 273 273 273 271 270 269 268 267 267 267 268 268 269 270 270 270 270 270 270 269 268 267 266 266 266 265 264 263 261 260 260
273 271 269 268 268 269 270 271 272 274 274 276 277 278 278 280 282 283 283 282 283 283 283 283 283 282 281 279 278 278 278 279 279 280 279 279 279 279 278 277 276 276 275 274 272 271 270 270 270 271 272 273 273 273 272 272 272 272 272 272 273 274 274 274 274 274 274 274 273 273 272 272 273 273 273 273 273 272 271 271 271 271 270 270 270 270 269 269 268 268 267 267 267 266 264 262 260
271 270 270 270 269 269 270 271 273 277 280 281 282 281 280 281 283 282 283 284 284 284 284 284 283 281 280 278 277 277 277 278 278 278 277 278 278 277 276 275 275 275 274 272 271 270 270 270 271 272 273 274 274 274 274 273 273 273 273 273 273 274 274 275 275 275 274 274 274 274 273 273 273 273 274 275 275 275 274 273 272 272 271 270 270 270 269 269 269 269 269 269 269 268 268 266 263
269 268 268 269 269 270 274 276 278 283 284 284 283 282 282 284 284 283 284 284 284 283 282 281 279 278 277 276 275 275 275 275 275 276 276 276 276 275 275 275 275 275 276 275 274 273 273 273 273 274 275 275 275 276 276 276 275 275 274 274 274 275 277 277 277 277 276 277 277 277 276 275 274 274 274 274 274 274 273 273 272 272 271 270 270 270 269 269 269 269 269 269 269 270 270 269 268